Orbital Elements at Epoch 2459000.5 (2020-May-31.0) TDB
Reference: JPL 17 (heliocentric ecliptic J2000)
Element | Value | Uncertainty (1-sigma) | Units |
e | .1261889060402767 | 4.9967e-08 | |
a | 3.230281427984242 | 4.2583e-08 | au |
q | 2.822655748384688 | 1.6045e-07 | au |
i | 18.06758253452334 | 7.1854e-06 | deg |
node | 238.9726636984217 | 2.0927e-05 | deg |
peri | 71.23223744728121 | 3.8541e-05 | deg |
M | 146.2010338278741 | 3.4796e-05 | deg |
tp | 2458139.294270429496 (2018-Jan-20.79427043) | 0.0002007 | TDB |
period | 2120.601028104848 5.81 | 4.1933e-05 1.148e-07 | d yr |
n | .169763192240705 | 3.3569e-09 | deg/d |
Q | 3.637907107583797 | 4.7957e-08 | au |
|
| | Orbit Determination Parameters
Additional Information
|